GAOFEN 3 DEB, 42679

Orbit data source: Space-Track

GAOFEN 3 DEB, 42679 is space debris in SSO originally from a launch on Tue, 09 Aug 2016 UTC launched from the Taiyaun Space Center, China (TSC). Debris objects in space refer to the collection of defunct objects orbiting the Earth. Examples of debris include non-operational satellites, rocket bodies, and fragments generated from explosions, collisions, or faulty payload assembly.

Loading next visibility...
Identifier
42679, 2016-049D
Orbit
SSO
Country
Flag of CNCN / PRC
Related business
Manufacturer
Unknown
Mission
Spacecraft
Bus & Motor
Unknown
Mass
Unknown
Launch date (UTC)
2016-08-09 (9 years ago)
Launch vehicle
Unknown
Launch site
Taiyaun Space Center, China (TSC)
Object type
Payload
Rocket body
Debris
Shape & HBR
Unknown shape, 0.1 m
Radar Cross Section
Small (<0.1 m²)

Expand to show TLE details & history
Last TLE update: 3 days ago

TLE from 3 days ago
0 GAOFEN 3 DEB
1 42679U 16049D   25293.31503658  .00000464  00000-0  14074-3 0  9993
2 42679  98.3265 303.9875 0006950  16.4257 343.7160 14.46510448485157
Epoch: 2025-10-20T07:33Z
TLE epoch observation values (Epoch: 2025-10-20T07:33:39.160Z)
Latitude
0.00005°
Longitude
161.55521°
Altitude
735.284 km
Speed
7.49 km/s
True Right ascension
20h 15m 56s
True Declination
0° 00' 00"
Sunlit
Object was in daylight at epoch
Visualization orbit readout
Latitude
Unknown
Longitude
Unknown
Altitude
Unknown
Speed
Unknown
Apparent Right ascension
Unknown
Apparent Declination
Unknown
Sunlit
N/A
Visualization observer readout
Local Sidereal Time
10:54:34
Azimuth
Unknown
Elevation
Unknown
Doppler factor
Unknown
Orbital elements
Apogee altitude
739.117 km
Perigee altitude
729.231 km
Semi-major axis
7,112.311 km
Eccentricity
0.0007
Inclination
98.3265°
RAAN
303.9875°
Arg. of periapsis
16.4257°
True anomaly
343.69365°
Mean anomaly
343.716°
Eccentric anomaly
343.70483°
Mean motion
3.61849 °/min
Orbital period
99.49 mins
BSTAR
0.00014074
Loading maneuver chart data...
Computing Atmospheric mass density...
Loading historical data...
Loading historical data...
Loading historical data...
Loading historical data...
Loading historical data...
Loading historical data...
Loading historical data...
Other satellites on launch #49 in the year 2016 (2016-08-09 UTC)

Documentation

Showing up to 5 results
|